"2016-05-20 00:00:00",1648731,6.501,135,3.464,0.241,20.59,107.4586,18.37,19.47,25.27,0,110.9,13.07,19.19,97.0
"2016-05-20 00:00:30",1648732,6.532,139.2,4.276,0.472,20.65,107.4572,18.37,19.45,25.46,0,110.9,13.07,19.18,101.2
"2016-05-20 00:01:00",1648733,6.145,136.5,2.087,0.697,20.59,107.4491,18.35,19.41,25.34,0,110.9,13.07,19.16,98.5
"2016-05-20 00:01:30",1648734,7.169,135.9,2.07,0.274,20.57,107.4291,18.3,19.4,25.46,0,110.9,13.08,19.11,97.9
"2016-05-20 00:02:00",1648735,6.517,134.3,4.994,0.323,20.5,107.4249,18.28,19.39,25.43,0,110.9,13.08,19.10,96.3
"2016-05-20 00:02:30",1648736,6.852,132.4,2.044,0.359,20.48,107.4238,18.28,19.37,25.25,0,110.9,13.08,19.10,94.4
"2016-05-20 00:03:00",1648737,7.785,133.2,1.478,0.291,20.51,107.4153,18.26,19.35,24.79,0,110.9,13.08,19.08,95.2
"2016-05-20 00:03:30",1648738,7.279,132.3,2.369,0.223,20.5,107.3948,18.21,19.33,24.61,0,110.9,13.09,19.02,94.3
"2016-05-20 00:04:00",1648739,7.393,133,1.454,0.378,20.54,107.3912,18.2,19.31,24.47,0,110.9,13.08,19.01,95.0
"2016-05-20 00:04:30",1648740,7.362,133.2,2.192,0.287,20.53,107.3903,18.2,19.29,24.42,0,110.9,13.09,19.01,95.2
"2016-05-20 00:05:00",1648741,7.288,136.2,1.708,0.188,20.59,107.3825,18.18,19.28,24.47,0,110.9,13.09,18.99,98.2
"2016-05-20 00:05:30",1648742,7.183,135.9,2.949,0.229,20.59,107.3649,18.13,19.26,24.64,0,110.9,13.09,18.95,97.9
"2016-05-20 00:06:00",1648743,7.231,137.5,2.171,0.367,20.6,107.3631,18.13,19.24,24.7,0,110.9,13.09,18.94,99.5
"2016-05-20 00:06:30",1648744,7.717,133.7,3.451,0.396,20.51,107.3656,18.13,19.21,25.12,0,110.9,13.09,18.95,95.7
"2016-05-20 00:07:00",1648745,7.748,136.5,3.123,0.138,20.58,107.3645,18.13,19.2,25.01,0,110.9,13.09,18.95,98.5
"2016-05-20 00:07:30",1648746,6.965,136,2.602,0.258,20.55,107.3547,18.1,19.19,24.95,0,110.9,13.09,18.92,98.0
"2016-05-20 00:08:00",1648747,6.895,135.2,1.453,0.196,20.54,107.3413,18.07,19.17,25.08,0,110.9,13.09,18.89,97.2
"2016-05-20 00:08:30",1648748,6.541,130.1,1.416,0.2,20.44,107.3445,18.08,19.17,24.99,0,110.9,13.09,18.89,92.1
"2016-05-20 00:09:00",1648749,6.709,132.2,1.865,0.268,20.45,107.3529,18.1,19.16,25.09,0,110.9,13.09,18.92,94.2
"2016-05-20 00:09:30",1648750,6.523,127.7,1.638,0.171,20.4,107.3557,18.11,19.15,25.26,0,110.9,13.09,18.92,89.7
"2016-05-20 00:10:00",1648751,6.447,131.3,2.214,0.133,20.46,107.3581,18.11,19.14,25.3,0,110.9,13.09,18.93,93.3
"2016-05-20 00:10:30",1648752,6.182,134.8,2.201,0.126,20.53,107.3537,18.1,19.11,25.09,0,110.9,13.09,18.92,96.8
"2016-05-20 00:11:00",1648753,6.121,135.4,2.499,0.271,20.48,107.3492,18.09,19.11,25.16,0,110.9,13.09,18.91,97.4
"2016-05-20 00:11:30",1648754,6.37,137.2,2.671,0.295,20.53,107.3447,18.08,19.1,25.12,0,110.9,13.09,18.89,99.2
"2016-05-20 00:12:00",1648755,5.936,143.8,1.709,0.299,20.58,107.3377,18.06,19.11,24.93,0,110.8,13.09,18.88,105.8
"2016-05-20 00:12:30",1648756,5.953,138.3,3.989,0.272,20.48,107.3306,18.04,19.08,24.82,0,110.8,13.09,18.86,100.3
"2016-05-20 00:13:00",1648757,6.026,137,2.353,0.259,20.48,107.327,18.03,19.08,24.76,0,110.8,13.09,18.85,99.0
"2016-05-20 00:13:30",1648758,6.035,135.5,3.795,0.264,20.5,107.3261,18.03,19.06,24.74,0,110.8,13.09,18.85,97.5
"2016-05-20 00:14:00",1648759,6.119,131.5,1.883,0.164,20.47,107.3261,18.03,19.08,24.74,0,110.8,13.09,18.85,93.5
"2016-05-20 00:14:30",1648760,6.139,134.4,2.87,0.114,20.5,107.3261,18.03,19.06,24.79,0,110.8,13.09,18.85,96.4
"2016-05-20 00:15:00",1648761,6.305,136.9,2.899,0.152,20.45,107.3261,18.03,19.05,24.89,0,110.8,13.09,18.85,98.9
"2016-05-20 00:15:30",1648762,6.332,132,2.258,0.314,20.4,107.3261,18.03,19.05,25.12,0,110.8,13.09,18.85,94.0
"2016-05-20 00:16:00",1648763,6.017,130.7,1.95,0.144,20.41,107.3261,18.03,19.05,25.07,0,110.8,13.09,18.85,92.7
"2016-05-20 00:16:30",1648764,7.057,131.9,1.298,0.38,20.45,107.3258,18.03,19.04,24.97,0,110.8,13.09,18.85,93.9
"2016-05-20 00:17:00",1648765,7.093,131.9,1.399,0.283,20.45,107.3216,18.02,19.03,24.92,0,110.8,13.09,18.83,93.9
"2016-05-20 00:17:30",1648766,7.373,133.9,1.048,0.294,20.5,107.3202,18.02,19.03,24.88,0,110.8,13.09,18.83,95.9
"2016-05-20 00:18:00",1648767,7.831,130.3,1.67,0.21,20.5,107.3177,18.01,19.04,24.92,0,110.8,13.09,18.82,92.3
"2016-05-20 00:18:30",1648768,7.671,129.6,1.11,0.225,20.48,107.3163,18.01,19.02,24.91,0,110.8,13.09,18.82,91.6
"2016-05-20 00:19:00",1648769,7.398,130.3,1.056,0.261,20.47,107.3149,18,19.03,24.86,0,110.8,13.09,18.82,92.3
"2016-05-20 00:19:30",1648770,7.076,126.8,1.806,0.21,20.45,107.3101,17.99,19.02,24.94,0,110.8,13.1,18.81,88.8
"2016-05-20 00:20:00",1648771,7.026,126.2,1.528,0.434,20.39,107.3033,17.97,19.02,25.04,0,110.8,13.1,18.79,88.2
"2016-05-20 00:20:30",1648772,6.903,129.3,2.409,0.128,20.45,107.2991,17.96,19.01,24.94,0,110.8,13.1,18.78,91.3
"2016-05-20 00:21:00",1648773,7.154,129.2,0.9,0.156,20.46,107.2959,17.95,19.01,24.76,0,110.8,13.1,18.77,91.2
"2016-05-20 00:21:30",1648774,7.275,126.5,0.914,0.17,20.43,107.298,17.96,19.02,24.66,0,110.8,13.1,18.77,88.5
"2016-05-20 00:22:00",1648775,7.081,126.9,1.327,0.157,20.36,107.3013,17.97,19,24.68,0,110.8,13.1,18.78,88.9
"2016-05-20 00:22:30",1648776,6.761,129.2,1.199,0.15,20.41,107.3041,17.97,19.02,24.72,0,110.8,13.1,18.79,91.2
"2016-05-20 00:23:00",1648777,6.036,135.2,3.165,0.251,20.47,107.3052,17.98,19.02,24.78,0,110.8,13.1,18.79,97.2
"2016-05-20 00:23:30",1648778,6.156,135.2,1.907,0.131,20.44,107.3074,17.98,19.01,25.05,0,110.8,13.1,18.80,97.2
"2016-05-20 00:24:00",1648779,6.308,135.8,2.733,0.129,20.49,107.3122,18,19.01,25.03,0,110.8,13.1,18.81,97.8
"2016-05-20 00:24:30",1648780,6.324,135.8,0.825,0.138,20.49,107.3109,17.99,19.02,24.92,0,110.8,13.1,18.81,97.8
"2016-05-20 00:25:00",1648781,6.107,137.3,1.44,0.065,20.46,107.3138,18,19.02,24.89,0,110.8,13.1,18.81,99.3
"2016-05-20 00:25:30",1648782,6.109,137,1.735,0.143,20.46,107.3133,18,19.02,24.87,0,110.8,13.1,18.81,99.0
"2016-05-20 00:26:00",1648783,6.052,137.7,2.684,0.141,20.35,107.3215,18.02,19.02,24.8,0,110.8,13.1,18.83,99.7
"2016-05-20 00:26:30",1648784,6.381,137.2,1.858,0.306,20.29,107.3246,18.03,19.03,24.83,0,110.8,13.1,18.84,99.2
"2016-05-20 00:27:00",1648785,6.283,141.6,1.193,0.202,20.17,107.3362,18.06,19.02,24.85,0,110.8,13.1,18.87,103.6
"2016-05-20 00:27:30",1648786,6.414,136,1.285,0.191,20.01,107.3431,18.07,19.04,24.85,0,110.8,13.1,18.89,98.0
"2016-05-20 00:28:00",1648787,6.665,138,2.269,0.135,20,107.348,18.09,19.03,24.78,0,110.8,13.1,18.90,100.0
"2016-05-20 00:28:30",1648788,6.362,144,2.871,0.263,19.95,107.3548,18.1,19.04,24.88,0,110.8,13.1,18.92,106.0
"2016-05-20 00:29:00",1648789,6.405,140.8,1.472,0.263,19.81,107.3551,18.11,19.06,24.85,0,110.8,13.1,18.92,102.8
"2016-05-20 00:29:30",1648790,6.971,139,1.559,0.175,19.77,107.3566,18.11,19.05,24.77,0,110.8,13.1,18.92,101.0
"2016-05-20 00:30:00",1648791,6.762,139.8,1.898,0.158,19.76,107.3608,18.12,19.07,24.68,0,110.8,13.1,18.94,101.8
"2016-05-20 00:30:30",1648792,6.445,140.3,0.849,0.105,19.87,107.374,18.15,19.07,24.73,0,110.8,13.1,18.97,102.3
"2016-05-20 00:31:00",1648793,6.739,139.1,1.09,0.146,19.73,107.3856,18.18,19.1,24.76,0,110.8,13.09,19.00,101.1
"2016-05-20 00:31:30",1648794,6.966,138.6,1.198,0.176,19.7,107.3916,18.2,19.12,24.75,0,110.8,13.09,19.01,100.6
"2016-05-20 00:32:00",1648795,6.905,139.8,1.049,0.141,19.71,107.3919,18.2,19.13,24.77,0,110.8,13.09,19.02,101.8
"2016-05-20 00:32:30",1648796,6.565,143.1,2.474,0.172,19.75,107.3947,18.21,19.14,24.81,0,110.8,13.09,19.02,105.1
"2016-05-20 00:33:00",1648797,6.608,144.4,1.83,0.252,19.75,107.417,18.26,19.16,24.92,0,110.8,13.09,19.08,106.4
"2016-05-20 00:33:30",1648798,7.213,143.4,1.344,0.209,19.77,107.4209,18.27,19.19,24.9,0,110.8,13.09,19.09,105.4
"2016-05-20 00:34:00",1648799,7.168,143.5,1.141,0.116,19.71,107.4218,18.28,19.19,24.85,0,110.8,13.09,19.09,105.5
"2016-05-20 00:34:30",1648800,6.921,144.1,1.868,0.202,19.7,107.4193,18.27,19.22,24.83,0,110.8,13.09,19.09,106.1
"2016-05-20 00:35:00",1648801,7.017,146.5,1.278,0.096,19.64,107.433,18.31,19.23,24.93,0,110.8,13.09,19.12,108.5
"2016-05-20 00:35:30",1648802,7.065,146,1.455,0.156,19.64,107.4431,18.33,19.25,24.84,0,110.8,13.1,19.15,108.0
"2016-05-20 00:36:00",1648803,7.072,144.5,0.615,0.127,19.65,107.4477,18.34,19.27,24.74,0,110.8,13.1,19.16,106.5
"2016-05-20 00:36:30",1648804,6.96,144.4,1.407,0.094,19.7,107.4443,18.33,19.29,24.69,0,110.8,13.1,19.15,106.4
"2016-05-20 00:37:00",1648805,7.132,145.3,1.861,0.203,19.71,107.4446,18.34,19.3,24.7,0,110.8,13.1,19.15,107.3
"2016-05-20 00:37:30",1648806,7.234,144.6,0.852,0.106,19.71,107.4548,18.36,19.31,24.75,0,110.8,13.1,19.18,106.6
"2016-05-20 00:38:00",1648807,7.079,143.9,0.661,0.147,19.7,107.4685,18.4,19.35,24.71,0,110.8,13.1,19.21,105.9
"2016-05-20 00:38:30",1648808,7.122,146,1.381,0.23,19.67,107.4767,18.42,19.35,24.73,0,110.8,13.1,19.23,108.0
"2016-05-20 00:39:00",1648809,7.236,148.6,0.81,0.144,19.78,107.4739,18.41,19.36,24.72,0,110.8,13.1,19.23,110.6
"2016-05-20 00:39:30",1648810,7.212,147.8,0.774,0.153,19.7,107.4766,18.42,19.37,24.74,0,110.8,13.1,19.23,109.8
"2016-05-20 00:40:00",1648811,7.269,146.2,1.093,0.172,19.72,107.4757,18.41,19.39,24.63,0,110.8,13.1,19.23,108.2
"2016-05-20 00:40:30",1648812,7.461,148,2.502,0.131,19.71,107.4858,18.44,19.4,24.71,0,110.8,13.1,19.26,110.0
"2016-05-20 00:41:00",1648813,7.025,145.2,1.078,0.156,19.66,107.4986,18.47,19.41,24.74,0,110.8,13.1,19.29,107.2
"2016-05-20 00:41:30",1648814,7.193,144.4,1.047,0.092,19.73,107.5016,18.48,19.42,24.5,0,110.8,13.1,19.30,106.4
"2016-05-20 00:42:00",1648815,7.352,143.6,0.928,0.104,19.77,107.5052,18.49,19.44,24.5,0,110.8,13.09,19.31,105.6
"2016-05-20 00:42:30",1648816,7.014,144.2,2.574,0.181,19.77,107.5031,18.49,19.45,24.52,0,110.8,13.09,19.30,106.2
"2016-05-20 00:43:00",1648817,7.036,142.3,1.339,0.142,19.81,107.5019,18.48,19.47,24.54,0,110.8,13.09,19.30,104.3
"2016-05-20 00:43:30",1648818,6.919,141.6,1.1,0.164,19.86,107.4995,18.48,19.47,24.55,0,110.8,13.09,19.29,103.6
"2016-05-20 00:44:00",1648819,7.211,142.9,1.934,0.237,20.03,107.5004,18.48,19.48,24.59,0,110.8,13.09,19.29,104.9
"2016-05-20 00:44:30",1648820,7.238,143.8,1.242,0.152,20.12,107.5013,18.48,19.5,24.57,0,110.8,13.09,19.30,105.8
"2016-05-20 00:45:00",1648821,7.475,147.2,2.048,0.134,20.17,107.504,18.49,19.49,24.51,0,110.9,13.09,19.30,109.2
"2016-05-20 00:45:30",1648822,6.952,148.9,1.214,0.22,20.19,107.4995,18.48,19.5,24.53,0,110.9,13.09,19.29,110.9
"2016-05-20 00:46:00",1648823,7.123,149.7,1.898,0.215,20.16,107.5001,18.48,19.5,24.58,0,110.9,13.09,19.29,111.7
"2016-05-20 00:46:30",1648824,7.109,145.8,2.514,0.18,20.23,107.5007,18.48,19.51,24.61,0,110.9,13.09,19.30,107.8
"2016-05-20 00:47:00",1648825,7.242,153.8,5.658,0.527,20.3,107.504,18.49,19.52,24.89,0,110.9,13.09,19.30,115.8
"2016-05-20 00:47:30",1648826,7.608,152.4,2.492,0.402,20.25,107.5046,18.49,19.5,25.07,0,110.8,13.09,19.31,114.4
"2016-05-20 00:48:00",1648827,8.22,150.8,1.799,0.168,20.35,107.5043,18.49,19.51,25.54,0,110.8,13.09,19.30,112.8
"2016-05-20 00:48:30",1648828,7.796,147.9,1.049,0.314,20.35,107.5043,18.49,19.51,25.36,0,110.8,13.09,19.30,109.9
"2016-05-20 00:49:00",1648829,7.565,148.3,2.224,0.183,20.31,107.5028,18.48,19.49,25.42,0,110.9,13.08,19.30,110.3
"2016-05-20 00:49:30",1648830,7.526,148.9,1.209,0.18,20.29,107.4953,18.47,19.5,25.34,0,110.9,13.09,19.28,110.9
"2016-05-20 00:50:00",1648831,7.892,149.6,1.693,0.147,20.29,107.48,18.43,19.48,25.58,0,110.9,13.09,19.24,111.6
"2016-05-20 00:50:30",1648832,7.925,149.2,1.873,0.137,20.29,107.4727,18.41,19.48,25.62,0,110.8,13.09,19.22,111.2
"2016-05-20 00:51:00",1648833,8.26,148.8,0.847,0.19,20.36,107.4712,18.4,19.47,25.52,0,110.8,13.09,19.22,110.8
"2016-05-20 00:51:30",1648834,8.09,148.9,0.898,0.223,20.33,107.4748,18.41,19.46,25.93,0,110.8,13.09,19.23,110.9
"2016-05-20 00:52:00",1648835,7.771,149.3,0.6,0.155,20.32,107.4734,18.41,19.45,25.93,0,110.8,13.09,19.23,111.3
"2016-05-20 00:52:30",1648836,7.731,151.4,0.988,0.113,20.32,107.4638,18.38,19.43,26.18,0,110.8,13.09,19.20,113.4
"2016-05-20 00:53:00",1648837,7.521,149,1.149,0.083,20.36,107.4465,18.34,19.42,26.07,0,110.8,13.09,19.16,111.0
"2016-05-20 00:53:30",1648838,7.465,150.6,1.968,0.082,20.36,107.4428,18.33,19.4,26.1,0,110.8,13.09,19.15,112.6
"2016-05-20 00:54:00",1648839,7.624,152,0.918,0.143,20.29,107.4458,18.34,19.39,26.85,0,110.8,13.1,19.15,114.0
"2016-05-20 00:54:30",1648840,7.768,152.7,1.865,0.148,20.35,107.4424,18.33,19.38,27.24,0,110.8,13.1,19.15,114.7
"2016-05-20 00:55:00",1648841,7.768,151.2,1.055,0.122,20.29,107.4372,18.32,19.38,27.25,0,110.8,13.1,19.13,113.2
"2016-05-20 00:55:30",1648842,8.09,154.8,1.372,0.197,20.3,107.4122,18.25,19.35,27.75,0,110.8,13.1,19.07,116.8
"2016-05-20 00:56:00",1648843,8.03,155,0.728,0.098,20.34,107.416,18.26,19.33,28.23,0,110.8,13.1,19.08,117.0
"2016-05-20 00:56:30",1648844,8.41,155.4,1.014,0.224,20.2,107.4178,18.27,19.32,28.29,0,110.8,13.1,19.08,117.4
"2016-05-20 00:57:00",1648845,8.43,156.5,1.818,0.231,20.05,107.4147,18.26,19.3,28.55,0,110.8,13.1,19.07,118.5
"2016-05-20 00:57:30",1648846,8.18,158.4,1.82,0.14,19.93,107.4003,18.22,19.3,28.75,0,110.8,13.1,19.04,120.4
"2016-05-20 00:58:00",1648847,8.25,157.8,1.864,0.158,19.85,107.3852,18.18,19.27,28.93,0,110.8,13.1,19.00,119.8
"2016-05-20 00:58:30",1648848,8.22,156.1,0.921,0.13,19.8,107.3835,18.18,19.25,29.04,0,110.8,13.1,18.99,118.1
"2016-05-20 00:59:00",1648849,8.03,158.1,1.491,0.164,20.04,107.3835,18.18,19.24,28.93,0,110.8,13.1,18.99,120.1
"2016-05-20 00:59:30",1648850,7.409,160.6,1.968,0.191,20.02,107.3803,18.17,19.22,28.96,0,110.8,13.1,18.99,122.6
"2016-05-20 01:00:00",1648851,7.141,160.7,0.996,0.228,19.97,107.3708,18.15,19.21,29.01,0,110.8,13.1,18.96,122.7
"2016-05-20 01:00:30",1648852,7.218,164.2,1.93,0.12,20,107.356,18.11,19.2,28.84,0,110.8,13.1,18.92,126.2
"2016-05-20 01:01:00",1648853,7.306,162.1,1.016,0.213,20.06,107.3488,18.09,19.18,29.21,0,110.8,13.1,18.90,124.1
"2016-05-20 01:01:30",1648854,7.15,159.4,1.64,0.118,20.16,107.3488,18.09,19.17,29.32,0,110.8,13.1,18.90,121.4
"2016-05-20 01:02:00",1648855,7.2,159.7,1.921,0.358,20.14,107.3489,18.09,19.16,29.46,0,110.8,13.1,18.90,121.7
"2016-05-20 01:02:30",1648856,7.56,162.6,1.889,0.205,20.05,107.3393,18.07,19.13,29.66,0,110.8,13.1,18.88,124.6
"2016-05-20 01:03:00",1648857,7.643,164.3,1.759,0.235,20,107.3215,18.02,19.12,29.71,0,110.8,13.1,18.83,126.3
"2016-05-20 01:03:30",1648858,7.567,165.4,1.264,0.156,19.97,107.3198,18.02,19.11,29.82,0,110.8,13.1,18.83,127.4
"2016-05-20 01:04:00",1648859,8.08,167.5,1.587,0.422,20,107.3195,18.01,19.08,30.05,0,110.8,13.1,18.83,129.5
"2016-05-20 01:04:30",1648860,8.34,166,2.246,0.231,20.09,107.3217,18.02,19.06,30.23,0,110.8,13.1,18.83,128.0
"2016-05-20 01:05:00",1648861,8.08,159.8,0.84,0.349,20.12,107.3167,18.01,19.06,30.29,0,110.8,13.09,18.82,121.8
"2016-05-20 01:05:30",1648862,7.564,162.1,2.555,0.439,20.06,107.2945,17.95,19.04,30.36,0,110.8,13.09,18.76,124.1
"2016-05-20 01:06:00",1648863,7.617,168.4,2.947,0.547,19.97,107.2888,17.94,19,30.56,0,110.8,13.09,18.75,130.4
"2016-05-20 01:06:30",1648864,8.12,170.3,1.319,0.3,19.95,107.2891,17.94,19,30.89,0,110.8,13.09,18.75,132.3
"2016-05-20 01:07:00",1648865,7.8,172.2,3.525,0.491,19.88,107.2915,17.94,18.98,31.15,0,110.8,13.09,18.76,134.2
"2016-05-20 01:07:30",1648866,8.03,170.3,3.098,0.271,19.9,107.2847,17.93,18.97,31.29,0,110.8,13.09,18.74,132.3
"2016-05-20 01:08:00",1648867,8.07,171.8,2.33,0.302,19.99,107.2704,17.89,18.95,31.21,0,110.8,13.09,18.70,133.8
"2016-05-20 01:08:30",1648868,7.976,170.6,1.588,0.224,20.06,107.2586,17.86,18.93,31.45,0,110.8,13.09,18.67,132.6
"2016-05-20 01:09:00",1648869,8.66,172.6,1.785,0.195,20.16,107.2605,17.86,18.92,31.12,0,110.8,13.09,18.68,134.6
"2016-05-20 01:09:30",1648870,8.51,172,1.494,0.257,20.11,107.2592,17.86,18.89,31.22,0,110.8,13.09,18.67,134.0
"2016-05-20 01:10:00",1648871,8.46,172.6,0.891,0.197,20.03,107.2556,17.85,18.87,31.24,0,110.8,13.1,18.66,134.6
"2016-05-20 01:10:30",1648872,8.12,171.5,0.845,0.14,19.97,107.2492,17.83,18.87,31.21,0,110.8,13.11,18.65,133.5
"2016-05-20 01:11:00",1648873,8.02,171,0.338,0.107,20.01,107.2332,17.79,18.84,31.38,0,110.8,13.11,18.61,133.0
"2016-05-20 01:11:30",1648874,8.09,171.7,1.364,0.155,19.99,107.2267,17.78,18.83,31.11,0,110.8,13.11,18.59,133.7
"2016-05-20 01:12:00",1648875,8.37,173.1,1.18,0.173,19.97,107.2273,17.78,18.81,31.08,0,110.8,13.11,18.59,135.1
"2016-05-20 01:12:30",1648876,8.46,173.9,1.03,0.129,19.96,107.2267,17.78,18.81,30.84,0,110.8,13.11,18.59,135.9
"2016-05-20 01:13:00",1648877,8.55,173.9,0.883,0.209,19.98,107.2273,17.78,18.77,30.68,0,110.8,13.11,18.59,135.9
"2016-05-20 01:13:30",1648878,8.74,173.9,0.66,0.133,19.95,107.2273,17.78,18.77,30.47,0,110.8,13.11,18.59,135.9
"2016-05-20 01:14:00",1648879,8.65,173.7,0.756,0.114,19.94,107.2239,17.77,18.77,30.54,0,110.8,13.11,18.58,135.7
"2016-05-20 01:14:30",1648880,8.42,172.1,1.578,0.18,19.96,107.2197,17.76,18.74,30.71,0,110.8,13.11,18.57,134.1
"2016-05-20 01:15:00",1648881,8.37,172.5,0.882,0.147,19.95,107.2188,17.76,18.74,30.6,0,110.8,13.11,18.57,134.5
"2016-05-20 01:15:30",1648882,8.49,174.5,0.7,0.137,20.01,107.2183,17.75,18.74,30.33,0,110.8,13.1,18.57,136.5
"2016-05-20 01:16:00",1648883,8.53,175.9,1.487,0.237,19.94,107.2169,17.75,18.73,30.75,0,110.8,13.1,18.57,137.9
"2016-05-20 01:16:30",1648884,8.58,177.4,1.048,0.13,19.95,107.2059,17.72,18.72,31.01,0,110.8,13.1,18.54,139.4
"2016-05-20 01:17:00",1648885,8.41,177.7,0.702,0.156,20.06,107.1977,17.7,18.72,31.13,0,110.8,13.1,18.52,139.7
"2016-05-20 01:17:30",1648886,8.33,177.5,0.659,0.103,20.14,107.1938,17.69,18.71,30.98,0,110.8,13.1,18.51,139.5
"2016-05-20 01:18:00",1648887,8.47,176.4,1.286,0.153,20.15,107.1935,17.69,18.69,31.1,0,110.8,13.1,18.51,138.4
"2016-05-20 01:18:30",1648888,8.38,175.7,0.971,0.251,20.21,107.1935,17.69,18.69,31.14,0,110.8,13.1,18.51,137.7
"2016-05-20 01:19:00",1648889,7.936,174.5,1.831,0.221,20.22,107.1935,17.69,18.69,31.23,0,110.8,13.1,18.51,136.5
"2016-05-20 01:19:30",1648890,8.03,175.3,1.325,0.202,20.28,107.191,17.68,18.68,31.06,0,110.8,13.1,18.50,137.3
"2016-05-20 01:20:00",1648891,8.27,175.9,0.754,0.133,20.31,107.1704,17.63,18.67,30.96,0,110.8,13.1,18.45,137.9
"2016-05-20 01:20:30",1648892,8.32,176.7,0.637,0.123,20.25,107.1609,17.61,18.66,30.87,0,110.8,13.1,18.42,138.7
"2016-05-20 01:21:00",1648893,8.42,177.9,0.682,0.097,20.28,107.1597,17.6,18.65,30.82,0,110.8,13.11,18.42,139.9
"2016-05-20 01:21:30",1648894,8.31,176.6,0.901,0.117,20.28,107.1597,17.6,18.63,30.73,0,110.8,13.11,18.42,138.6
"2016-05-20 01:22:00",1648895,8.23,177,0.84,0.122,20.22,107.1578,17.6,18.61,30.77,0,110.8,13.1,18.41,139.0
"2016-05-20 01:22:30",1648896,8.31,177.8,0.959,0.123,20.23,107.1507,17.58,18.6,30.73,0,110.8,13.11,18.39,139.8
"2016-05-20 01:23:00",1648897,7.981,177.1,1.361,0.111,20.25,107.131,17.53,18.6,30.76,0,110.8,13.1,18.34,139.1
"2016-05-20 01:23:30",1648898,8.04,175.7,0.937,0.092,20.32,107.126,17.52,18.59,30.76,0,110.8,13.1,18.33,137.7
"2016-05-20 01:24:00",1648899,8.11,176.2,1.109,0.143,20.32,107.126,17.52,18.57,30.95,0,110.8,13.1,18.33,138.2
"2016-05-20 01:24:30",1648900,8.2,176,1.006,0.116,20.32,107.126,17.52,18.55,30.89,0,110.8,13.1,18.33,138.0
"2016-05-20 01:25:00",1648901,8.03,177,0.827,0.122,20.37,107.126,17.52,18.55,30.57,0,110.8,13.1,18.33,139.0
"2016-05-20 01:25:30",1648902,8.01,176.6,0.713,0.122,20.36,107.1223,17.51,18.54,30.67,0,110.8,13.1,18.32,138.6
"2016-05-20 01:26:00",1648903,8.08,177.4,1.019,0.088,20.37,107.1158,17.49,18.53,30.93,0,110.8,13.1,18.31,139.4
"2016-05-20 01:26:30",1648904,8.06,176.5,1.091,0.168,20.35,107.1113,17.48,18.51,30.95,0,110.8,13.11,18.29,138.5
"2016-05-20 01:27:00",1648905,7.83,175.6,0.94,0.082,20.3,107.0996,17.45,18.51,31.2,0,110.8,13.11,18.26,137.6
"2016-05-20 01:27:30",1648906,7.811,175.7,1.204,0.143,20.36,107.0949,17.44,18.5,31.18,0,110.8,13.11,18.25,137.7
"2016-05-20 01:28:00",1648907,7.652,177.3,1.084,0.12,20.32,107.0973,17.44,18.48,31.28,0,110.8,13.11,18.26,139.3
"2016-05-20 01:28:30",1648908,7.699,176.6,0.714,0.222,20.29,107.1009,17.45,18.47,31.47,0,110.8,13.11,18.27,138.6
"2016-05-20 01:29:00",1648909,7.742,175.9,1.18,0.317,20.31,107.0981,17.45,18.47,31.5,0,110.8,13.11,18.26,137.9
"2016-05-20 01:29:30",1648910,7.919,176.3,1.34,0.203,20.41,107.0943,17.44,18.46,31.37,0,110.8,13.11,18.25,138.3
"2016-05-20 01:30:00",1648911,7.88,175.9,1.145,0.186,20.41,107.0797,17.4,18.44,31.31,0,110.8,13.12,18.21,137.9
"2016-05-20 01:30:30",1648912,7.622,174,1.601,0.188,20.4,107.0723,17.38,18.44,31.36,0,110.8,13.12,18.19,136.0
"2016-05-20 01:31:00",1648913,7.487,173.9,1.862,0.192,20.39,107.0762,17.39,18.43,31.52,0,110.8,13.11,18.20,135.9
"2016-05-20 01:31:30",1648914,7.82,175.9,0.805,0.16,20.41,107.081,17.4,18.42,30.89,0,110.8,13.12,18.22,137.9
"2016-05-20 01:32:00",1648915,7.649,176,1.856,0.092,20.43,107.0834,17.41,18.41,31.14,0,110.8,13.11,18.22,138.0
"2016-05-20 01:32:30",1648916,7.696,178.5,1.434,0.117,20.43,107.0886,17.42,18.39,30.78,0,110.8,13.12,18.24,140.5
"2016-05-20 01:33:00",1648917,7.747,176.5,1.361,0.232,20.37,107.0904,17.43,18.4,30.78,0,110.8,13.12,18.24,138.5
"2016-05-20 01:33:30",1648918,8.14,179.2,1.325,0.251,20.23,107.0894,17.42,18.39,31.26,0,110.8,13.12,18.24,141.2
"2016-05-20 01:34:00",1648919,7.86,179.3,0.716,0.088,20.3,107.0878,17.42,18.38,30.91,0,110.8,13.12,18.23,141.3
"2016-05-20 01:34:30",1648920,7.786,177.6,1.052,0.111,20.28,107.087,17.42,18.38,30.94,0,110.8,13.12,18.23,139.6
"2016-05-20 01:35:00",1648921,7.765,177.5,1.219,0.101,20.32,107.085,17.41,18.38,30.85,0,110.8,13.12,18.23,139.5
"2016-05-20 01:35:30",1648922,8.18,179,0.924,0.152,20.32,107.0859,17.42,18.35,30.88,0,110.8,13.12,18.23,141.0
"2016-05-20 01:36:00",1648923,7.973,179.4,0.483,0.166,20.36,107.085,17.41,18.36,30.93,0,110.8,13.12,18.23,141.4
"2016-05-20 01:36:30",1648924,7.686,178.8,0.561,0.082,20.35,107.0859,17.42,18.36,30.83,0,110.8,13.12,18.23,140.8
"2016-05-20 01:37:00",1648925,7.846,178.6,0.677,0.143,20.36,107.0859,17.42,18.38,30.78,0,110.8,13.12,18.23,140.6
"2016-05-20 01:37:30",1648926,8.05,178.4,1.142,0.194,20.36,107.085,17.41,18.36,30.83,0,110.8,13.12,18.23,140.4
"2016-05-20 01:38:00",1648927,8.13,176.3,0.787,0.116,20.33,107.0853,17.41,18.36,31.18,0,110.8,13.12,18.23,138.3
"2016-05-20 01:38:30",1648928,8.15,177.7,0.576,0.097,20.41,107.0822,17.41,18.36,30.82,0,110.8,13.12,18.22,139.7
"2016-05-20 01:39:00",1648929,8.15,177.3,0.43,0.093,20.4,107.078,17.4,18.36,30.81,0,110.8,13.11,18.21,139.3
"2016-05-20 01:39:30",1648930,8.07,177.2,0.579,0.096,20.38,107.08,17.4,18.37,30.87,0,110.8,13.11,18.21,139.2
"2016-05-20 01:40:00",1648931,7.952,176,0.889,0.108,20.46,107.0774,17.39,18.37,30.85,0,110.8,13.11,18.21,138.0
"2016-05-20 01:40:30",1648932,7.947,175.7,0.48,0.068,20.41,107.0746,17.39,18.36,30.85,0,110.8,13.11,18.20,137.7
"2016-05-20 01:41:00",1648933,7.857,175.4,0.563,0.101,20.42,107.0712,17.38,18.36,30.83,0,110.8,13.11,18.19,137.4
"2016-05-20 01:41:30",1648934,7.799,175.1,0.365,0.072,20.45,107.0707,17.38,18.36,30.81,0,110.8,13.11,18.19,137.1
"2016-05-20 01:42:00",1648935,7.925,175,0.519,0.089,20.45,107.067,17.37,18.36,30.78,0,110.8,13.11,18.18,137.0
"2016-05-20 01:42:30",1648936,8.01,176,1.104,0.11,20.45,107.0628,17.36,18.36,30.81,0,110.8,13.11,18.17,138.0
"2016-05-20 01:43:00",1648937,8.04,178.5,1.798,0.118,20.45,107.0611,17.35,18.36,30.91,0,110.8,13.11,18.16,140.5
"2016-05-20 01:43:30",1648938,8.08,178,0.747,0.12,20.51,107.0608,17.35,18.35,31,0,110.8,13.11,18.16,140.0
"2016-05-20 01:44:00",1648939,8.23,179.9,1.128,0.258,20.47,107.0608,17.35,18.34,31.09,0,110.8,13.12,18.16,141.9
"2016-05-20 01:44:30",1648940,8.25,180.3,1.425,0.157,20.48,107.0608,17.35,18.34,31.16,0,110.7,13.12,18.16,142.3
"2016-05-20 01:45:00",1648941,8.37,180.4,1.123,0.093,20.48,107.0608,17.35,18.36,31.2,0,110.7,13.12,18.16,142.4
"2016-05-20 01:45:30",1648942,8.28,181.2,0.885,0.206,20.52,107.0608,17.35,18.35,31.18,0,110.7,13.12,18.16,143.2
"2016-05-20 01:46:00",1648943,8.08,178.3,2.492,0.166,20.5,107.0608,17.35,18.35,31.15,0,110.7,13.12,18.16,140.3
"2016-05-20 01:46:30",1648944,8.07,175.6,0.865,0.115,20.5,107.0608,17.35,18.34,31.07,0,110.7,13.12,18.16,137.6
"2016-05-20 01:47:00",1648945,7.973,175.3,0.94,0.138,20.48,107.0611,17.35,18.34,31.11,0,110.7,13.12,18.16,137.3
"2016-05-20 01:47:30",1648946,8.08,174.1,1.205,0.148,20.44,107.0614,17.35,18.34,31.03,0,110.7,13.12,18.17,136.1